TimeCDT,TemperatureF,Dew PointF,Humidity,Sea Level PressureIn,VisibilityMPH,Wind Direction,Wind SpeedMPH,Gust SpeedMPH,PrecipitationIn,Events,Conditions,WindDirDegrees,DateUTC
12:12 AM,67.8,54.9,63,29.97,10.0,SSW,6.9,-,N/A,,Scattered Clouds,200,2013-07-25 05:12:00
12:33 AM,66.4,56.8,71,29.98,10.0,SSW,5.8,-,N/A,Rain,Light Rain,200,2013-07-25 05:33:00
12:53 AM,65.8,59.2,79,29.98,7.0,SSW,13.8,28.8,0.09,Rain-Thunderstorm,Rain,210,2013-07-25 05:53:00
1:13 AM,65.7,59.9,82,29.98,10.0,NE,5.8,-,N/A,,Overcast,40,2013-07-25 06:13:00
1:32 AM,65.1,59.2,81,29.98,10.0,Calm,Calm,-,N/A,Thunderstorm,Scattered Clouds,0,2013-07-25 06:32:00
1:53 AM,62.4,59.9,91,29.97,10.0,Calm,Calm,-,N/A,Thunderstorm,Clear,0,2013-07-25 06:53:00
2:13 AM,62.6,59.5,90,29.96,10.0,Calm,Calm,-,N/A,,Clear,0,2013-07-25 07:13:00
2:33 AM,61.9,58.6,89,29.96,10.0,Calm,Calm,-,N/A,,Clear,0,2013-07-25 07:33:00
2:53 AM,60.6,58.6,93,29.95,10.0,Calm,Calm,-,N/A,,Clear,0,2013-07-25 07:53:00
3:13 AM,59.5,58.1,95,29.95,10.0,Calm,Calm,-,N/A,,Clear,0,2013-07-25 08:13:00
3:33 AM,59.9,58.6,96,29.95,10.0,Calm,Calm,-,N/A,,Clear,0,2013-07-25 08:33:00
3:53 AM,59.0,57.7,96,29.95,7.0,Calm,Calm,-,N/A,,Scattered Clouds,0,2013-07-25 08:53:00
4:13 AM,57.9,56.7,96,29.96,7.0,Calm,Calm,-,N/A,,Clear,0,2013-07-25 09:13:00
4:33 AM,57.7,56.8,97,29.96,7.0,WSW,3.5,-,N/A,,Clear,250,2013-07-25 09:33:00
4:53 AM,58.3,57.6,97,29.96,7.0,West,4.6,-,N/A,,Scattered Clouds,260,2013-07-25 09:53:00
5:13 AM,59.0,58.3,97,29.96,7.0,WSW,3.5,-,N/A,,Mostly Cloudy,240,2013-07-25 10:13:00
5:33 AM,58.5,57.6,97,29.96,7.0,West,5.8,-,N/A,,Scattered Clouds,260,2013-07-25 10:33:00
5:53 AM,58.5,57.7,97,29.96,7.0,West,3.5,-,N/A,,Mostly Cloudy,260,2013-07-25 10:53:00
6:13 AM,58.6,58.1,98,29.95,5.0,Calm,Calm,-,N/A,,Scattered Clouds,0,2013-07-25 11:13:00
6:33 AM,59.5,58.8,97,29.95,5.0,Calm,Calm,-,N/A,,Clear,0,2013-07-25 11:33:00
6:53 AM,60.4,59.7,97,29.95,5.0,Calm,Calm,-,N/A,,Clear,0,2013-07-25 11:53:00
7:13 AM,61.9,61.2,97,29.96,7.0,Calm,Calm,-,N/A,,Clear,0,2013-07-25 12:13:00
7:33 AM,62.6,61.7,97,29.96,7.0,Calm,Calm,-,N/A,,Clear,0,2013-07-25 12:33:00
7:53 AM,64.0,63.1,97,29.96,10.0,Calm,Calm,-,N/A,,Clear,0,2013-07-25 12:53:00
8:13 AM,65.1,63.5,94,29.96,10.0,Calm,Calm,-,N/A,,Clear,0,2013-07-25 13:13:00
8:33 AM,66.2,63.9,92,29.97,10.0,Calm,Calm,-,N/A,,Clear,0,2013-07-25 13:33:00
8:53 AM,68.0,63.7,86,29.97,10.0,West,3.5,-,N/A,,Clear,270,2013-07-25 13:53:00
9:13 AM,68.9,63.9,84,29.97,10.0,Calm,Calm,-,N/A,,Clear,0,2013-07-25 14:13:00
9:33 AM,69.4,63.7,82,29.97,10.0,Calm,Calm,-,N/A,,Clear,0,2013-07-25 14:33:00
9:53 AM,69.8,63.7,81,29.96,10.0,Calm,Calm,-,N/A,,Scattered Clouds,0,2013-07-25 14:53:00
10:13 AM,70.5,61.9,74,29.97,10.0,SW,3.5,-,N/A,,Scattered Clouds,220,2013-07-25 15:13:00
10:33 AM,70.7,62.8,76,29.97,10.0,SW,3.5,-,N/A,,Scattered Clouds,220,2013-07-25 15:33:00
10:53 AM,71.6,63.0,74,29.98,10.0,Calm,Calm,-,N/A,,Scattered Clouds,0,2013-07-25 15:53:00
11:13 AM,71.6,63.3,75,29.99,10.0,WSW,4.6,-,N/A,,Scattered Clouds,250,2013-07-25 16:13:00
11:33 AM,72.7,62.1,69,30.00,10.0,West,8.1,-,N/A,,Scattered Clouds,270,2013-07-25 16:33:00
11:53 AM,73.2,61.5,67,30.00,10.0,West,8.1,-,N/A,,Scattered Clouds,280,2013-07-25 16:53:00
12:13 PM,72.9,59.7,63,30.00,10.0,West,5.8,-,N/A,,Mostly Cloudy,270,2013-07-25 17:13:00
12:33 PM,72.7,59.9,64,30.01,10.0,West,11.5,16.1,N/A,,Mostly Cloudy,270,2013-07-25 17:33:00
12:52 PM,71.6,59.7,66,30.01,10.0,WNW,6.9,-,N/A,,Mostly Cloudy,290,2013-07-25 17:52:00
1:13 PM,66.6,60.4,81,30.03,7.0,West,10.4,-,0.01,Rain,Light Rain,280,2013-07-25 18:13:00
1:32 PM,64.2,60.1,86,30.03,4.0,WNW,8.1,20.7,0.04,Rain,Rain,290,2013-07-25 18:32:00
1:53 PM,63.0,60.4,91,30.02,7.0,WNW,4.6,-,0.09,Rain,Light Rain,290,2013-07-25 18:53:00
2:13 PM,63.7,60.8,90,30.00,10.0,Calm,Calm,-,N/A,Rain,Light Rain,0,2013-07-25 19:13:00
2:33 PM,64.9,61.7,89,29.98,10.0,Calm,Calm,-,N/A,,Mostly Cloudy,0,2013-07-25 19:33:00
2:53 PM,66.2,62.1,86,29.96,10.0,Calm,Calm,-,N/A,,Overcast,0,2013-07-25 19:53:00
3:12 PM,68.5,62.1,80,29.96,10.0,NNW,3.5,-,N/A,,Mostly Cloudy,340,2013-07-25 20:12:00
3:33 PM,71.4,62.1,72,29.96,10.0,West,4.6,-,N/A,,Clear,280,2013-07-25 20:33:00
3:53 PM,74.3,63.3,68,29.95,10.0,West,5.8,-,N/A,,Clear,270,2013-07-25 20:53:00
4:13 PM,75.6,61.9,62,29.95,10.0,West,9.2,-,N/A,,Clear,270,2013-07-25 21:13:00
4:33 PM,76.8,60.8,58,29.94,10.0,West,13.8,-,N/A,,Scattered Clouds,280,2013-07-25 21:33:00
4:53 PM,76.8,60.1,56,29.94,10.0,West,10.4,-,N/A,,Scattered Clouds,270,2013-07-25 21:53:00
5:13 PM,77.4,58.1,51,29.94,10.0,WNW,11.5,17.3,N/A,,Clear,290,2013-07-25 22:13:00
5:33 PM,77.4,57.6,50,29.94,10.0,WNW,8.1,-,N/A,,Clear,290,2013-07-25 22:33:00
5:53 PM,77.0,57.7,51,29.94,10.0,West,8.1,-,N/A,,Clear,260,2013-07-25 22:53:00
6:13 PM,77.0,56.8,50,29.94,10.0,WNW,9.2,-,N/A,,Clear,290,2013-07-25 23:13:00
6:33 PM,77.0,56.3,49,29.93,10.0,West,10.4,-,N/A,,Clear,260,2013-07-25 23:33:00
6:53 PM,76.3,56.5,50,29.93,10.0,West,8.1,-,N/A,,Clear,270,2013-07-25 23:53:00
7:13 PM,75.6,57.4,53,29.93,10.0,West,5.8,-,N/A,,Clear,270,2013-07-26 00:13:00
7:33 PM,73.8,58.8,59,29.93,10.0,West,3.5,-,N/A,,Scattered Clouds,260,2013-07-26 00:33:00
7:53 PM,73.4,59.5,62,29.93,10.0,WSW,4.6,-,N/A,,Mostly Cloudy,250,2013-07-26 00:53:00
8:12 PM,72.3,59.0,63,29.93,10.0,West,3.5,-,N/A,,Scattered Clouds,260,2013-07-26 01:12:00
8:33 PM,70.0,61.0,73,29.94,10.0,Calm,Calm,-,N/A,,Mostly Cloudy,0,2013-07-26 01:33:00
8:53 PM,69.4,62.4,78,29.94,10.0,Calm,Calm,-,N/A,,Overcast,0,2013-07-26 01:53:00
9:13 PM,69.8,61.7,75,29.94,10.0,Calm,Calm,-,N/A,,Overcast,0,2013-07-26 02:13:00
9:33 PM,69.1,62.1,78,29.94,10.0,Calm,Calm,-,N/A,,Overcast,0,2013-07-26 02:33:00
9:53 PM,67.8,61.7,81,29.94,10.0,West,3.5,-,N/A,,Overcast,270,2013-07-26 02:53:00
10:13 PM,66.4,61.0,83,29.95,10.0,West,4.6,-,N/A,,Mostly Cloudy,260,2013-07-26 03:13:00
10:33 PM,66.6,60.8,82,29.96,10.0,West,3.5,-,N/A,,Mostly Cloudy,260,2013-07-26 03:33:00
10:53 PM,64.9,60.8,86,29.96,10.0,West,4.6,-,N/A,,Mostly Cloudy,260,2013-07-26 03:53:00
11:13 PM,63.5,60.1,89,29.96,10.0,West,3.5,-,N/A,,Scattered Clouds,270,2013-07-26 04:13:00
11:33 PM,62.6,59.9,91,29.96,10.0,Calm,Calm,-,N/A,,Scattered Clouds,0,2013-07-26 04:33:00
11:53 PM,62.4,60.1,92,29.96,10.0,Calm,Calm,-,N/A,,Mostly Cloudy,0,2013-07-26 04:53:00